[[{"header":{"parameterUnit":"m.s-1","parameterCategory":1,"la1":30.2991,"la2":30.254,"lo1":-89.0895,"lo2":-89.0444,"dy":0.0017,"dx":0.0017,"nx":28,"ny":28,"refTime":"2024-02-07T03:00:00:Z","depth":0,"parameterNumber":2,"parameterNumberName":"U-component_of_WINDS"},"data":[0,0,0,0,0,0,0,0,0,0,0,0,0,0,0,0,0,0,0,0,0,0,0,0,0,0,0,0,0,0,0,0,0,0,0,0,0,0,0,0,0,0,0,0,0,0,0,0,0,0,0,0,0,0,0,0,0,0,-0.8341,-0.8341,0,-0.8369,-0.8369,-0.8369,-0.8336,-0.8334,-0.8333,-0.8332,-0.8362,-0.8364,-0.8366,0,0,0,0,0,0,0,0,0,0,0,0,0,-0.8261,-0.8263,-0.8341,-0.8341,-0.8342,-0.8369,-0.8369,-0.8369,-0.8336,-0.8334,-0.8333,-0.8331,-0.8362,-0.8364,-0.8366,0,0,0,0,0,0,0,0,0,0,0,0,0,-0.8293,-0.8263,-0.8341,-0.8328,-0.8327,-0.8369,-0.8369,-0.837,-0.8336,-0.8334,-0.8332,-0.8331,-0.8361,-0.8364,-0.8367,-0.8422,0,0,-0.8376,-0.8377,0,0,0,0,0,0,0,0,-0.8291,-0.8296,-0.833,-0.8329,-0.8328,-0.8347,-0.8352,-0.8387,-0.8337,-0.8333,-0.8332,-0.833,-0.8359,-0.8362,-0.8371,-0.8424,-0.8425,-0.8376,-0.8378,-0.8379,-0.838,0,0,0,0,0,0,0,-0.8289,-0.8295,-0.8352,-0.833,-0.8329,-0.8322,-0.8324,-0.8358,-0.8356,-0.8333,-0.8331,-0.8334,-0.8358,-0.8368,-0.8372,-0.8426,-0.8376,-0.8378,-0.838,-0.8381,-0.8527,-0.8529,0,0,0,0,0,0,-0.8288,-0.8293,-0.8351,-0.8353,-0.8305,-0.8325,-0.8327,-0.8343,-0.8356,-0.8356,-0.8336,-0.8333,-0.8364,-0.8368,-0.8372,-0.844,-0.8379,-0.8382,-0.8383,-0.8525,-0.8527,-0.8529,0,0,0,0,0,0,-0.8287,-0.8294,-0.835,-0.8322,-0.8329,-0.8328,-0.8346,-0.8344,-0.8355,-0.8358,-0.8357,-0.8347,-0.8363,-0.8368,-0.841,-0.844,-0.8383,-0.8386,-0.8522,-0.8525,-0.8528,-0.8574,0,0,0,0,0,0,-0.8284,-0.8293,-0.8314,-0.8323,-0.833,-0.8387,-0.8347,-0.8346,-0.836,-0.8356,-0.8368,-0.8368,-0.8362,-0.8406,-0.8413,-0.8443,-0.8388,-0.852,-0.8524,-0.8527,-0.857,-0.8579,-0.8586,0,0,0,0,0,-0.8282,-0.8326,-0.8315,-0.8322,-0.8356,-0.8389,-0.8393,-0.8385,-0.8362,-0.8383,-0.8385,-0.8368,-0.8435,-0.8411,-0.8419,-0.845,-0.8518,-0.8522,-0.8527,-0.8567,-0.8577,-0.8586,0,0,0,0,0,0,-0.8321,-0.8327,-0.8315,-0.8364,-0.8376,-0.8383,-0.841,-0.8396,-0.8415,-0.8411,-0.8399,-0.8403,-0.8448,-0.8453,-0.8425,-0.8505,-0.8473,-0.8479,-0.85,-0.851,-0.8518,-0.8516,-0.839,0,0,0,0,0,-0.8335,-0.8361,-0.8365,-0.8407,-0.8414,-0.8411,-0.8425,-0.8417,-0.8429,-0.8435,-0.844,-0.8453,-0.8477,-0.8494,-0.8516,-0.857,-0.8573,-0.8596,-0.8603,-0.861,-0.8616,-0.8646,-0.8656,-0.8545,-0.8545,-0.8545,0,0,-0.8365,-0.8372,-0.8388,-0.8415,-0.8424,-0.8451,-0.8415,-0.8446,-0.8466,-0.8439,-0.848,-0.8484,-0.8498,-0.8547,-0.8568,-0.8552,-0.8647,-0.8616,-0.8621,-0.8624,-0.8652,-0.8662,-0.8672,-0.8548,-0.8547,-0.8547,0,0,-0.8434,-0.8441,-0.8478,-0.8487,-0.85,-0.8498,-0.8507,-0.8516,-0.8518,-0.8558,-0.8539,-0.8563,-0.8605,-0.8616,-0.8627,-0.8701,-0.8686,-0.8708,-0.875,-0.8779,-0.8788,-0.8796,-0.8823,-0.8833,-0.8714,-0.8714,-0.8714,0,-0.847,-0.851,-0.8498,-0.853,-0.8543,-0.8519,-0.8557,-0.8567,-0.8587,-0.8597,-0.8578,-0.8631,-0.8639,-0.869,-0.8708,-0.8717,-0.8728,-0.8707,-0.8787,-0.8795,-0.8802,-0.8828,-0.8839,-0.8717,-0.8717,-0.8716,-0.8716,0,-0.8554,-0.8582,-0.861,-0.863,-0.8646,-0.868,-0.8675,-0.8692,-0.8683,-0.8683,-0.8724,-0.8733,-0.8757,-0.8768,-0.876,-0.8819,-0.8809,-0.8789,-0.8757,-0.8816,-0.884,-0.885,-0.8721,-0.872,-0.8719,-0.8718,0,0,-0.8649,-0.8662,-0.8673,-0.8682,-0.8695,-0.8717,-0.875,-0.8774,-0.879,-0.8804,-0.8833,-0.8869,-0.8851,-0.8864,-0.8856,-0.8882,-0.8941,-0.8859,-0.8859,-0.8875,-0.9008,-0.9024,-0.9035,-0.893,-0.8932,-0.8933,-0.9007,0,-0.8719,-0.8777,-0.8768,-0.8825,-0.8851,-0.8829,-0.8858,-0.887,-0.8871,-0.8893,-0.8894,-0.8921,-0.8894,-0.8902,-0.8926,-0.8928,-0.8968,-0.8923,-0.8958,-0.896,-0.8957,-0.9048,-0.9064,-0.9133,-0.9016,-0.9018,-0.9019,0,-0.8809,-0.8827,-0.8886,-0.8895,-0.8906,-0.8933,-0.8954,-0.8975,-0.8988,-0.8987,-0.9001,-0.8989,-0.9024,-0.899,-0.9038,-0.9008,-0.9021,-0.9025,-0.9027,-0.9031,-0.8994,-0.9056,-0.9155,-0.9166,-0.9034,-0.9033,-0.9031,0,-0.8875,-0.8913,-0.8954,-0.8962,-0.8974,-0.8993,-0.8999,-0.901,-0.9025,-0.9043,-0.9053,-0.9075,-0.9087,-0.9105,-0.91,-0.9075,-0.915,-0.9115,-0.9151,-0.9151,-0.9168,-0.9168,-0.9273,-0.9175,-0.9175,-0.9175,-0.9174,0,-0.8954,-0.8992,-0.8983,-0.9008,-0.905,-0.9039,-0.908,-0.9084,-0.9094,-0.912,-0.9101,-0.9126,-0.9117,-0.9141,-0.9137,-0.9178,-0.9184,-0.9185,-0.9183,-0.9187,-0.9187,-0.9197,-0.9193,-0.9177,-0.9177,-0.9176,-0.9176,0,-0.9035,-0.9031,-0.9074,-0.9081,-0.9084,-0.9114,-0.9121,-0.9145,-0.9144,-0.9177,-0.9184,-0.9183,-0.9211,-0.9207,-0.9238,-0.9235,-0.9287,-0.9279,-0.9283,-0.9281,-0.9318,-0.9315,-0.9434,-0.945,-0.9341,-0.9342,-0.9342,0,-0.9087,-0.9115,-0.9126,-0.9142,-0.9149,-0.9175,-0.919,-0.918,-0.9196,-0.9213,-0.9236,-0.9262,-0.9282,-0.9328,-0.9331,-0.9354,-0.9348,-0.9388,-0.9351,-0.9355,-0.935,-0.9349,-0.9353,-0.9396,-0.9397,-0.9398,-0.9399,0,-0.9181,-0.9177,-0.9199,-0.922,-0.9239,-0.9255,-0.927,-0.9284,-0.9276,-0.9295,-0.9323,-0.9339,-0.9371,-0.9398,-0.942,-0.9427,-0.9412,-0.941,-0.942,-0.9425,-0.9426,-0.9427,-0.9304,-0.9408,-0.9407,-0.9406,-0.9406,-0.9405,-0.9249,-0.9274,-0.9285,-0.931,-0.932,-0.9335,-0.9358,-0.936,-0.9383,-0.9408,-0.94,-0.9433,-0.9445,-0.9474,-0.9483,-0.9509,-0.9494,-0.9508,-0.9512,-0.9516,-0.9521,-0.9421,-0.9512,-0.9512,-0.9512,-0.9512,-0.9512,0,-0.9343,-0.9349,-0.9372,-0.9394,-0.9414,-0.9397,-0.9412,-0.9431,-0.9459,-0.9472,-0.9493,-0.9525,-0.9551,-0.9555,-0.958,-0.96,-0.9594,-0.9607,-0.9606,-0.9608,-0.9532,-0.9521,-0.9611,-0.9611,-0.9611,-0.9611,-0.9611,-0.9611,-0.9394,-0.9435,-0.9433,-0.9479,-0.9484,-0.9516,-0.9526,-0.954,-0.955,-0.9587,-0.9609,-0.9611,-0.9621,-0.9646,-0.9669,-0.967,-0.968,-0.9696,-0.9695,-0.9623,-0.9613,-0.9604,-0.9594,-0.9698,-0.9698,-0.9769,-0.977,-0.977]},{"header":{"parameterUnit":"m.s-1","parameterCategory":1,"la1":30.2991,"la2":30.254,"lo1":-89.0895,"lo2":-89.0444,"dy":0.0017,"dx":0.0017,"nx":28,"ny":28,"refTime":"2024-02-07T03:00:00:Z","depth":0,"parameterNumber":3,"parameterNumberName":"V-component_of_WINDS"},"data":[0,0,0,0,0,0,0,0,0,0,0,0,0,0,0,0,0,0,0,0,0,0,0,0,0,0,0,0,0,0,0,0,0,0,0,0,0,0,0,0,0,0,0,0,0,0,0,0,0,0,0,0,0,0,0,0,0,0,-3.2265,-3.2266,0,-3.2316,-3.2317,-3.2317,-3.2285,-3.2283,-3.2282,-3.228,-3.2329,-3.2332,-3.2334,0,0,0,0,0,0,0,0,0,0,0,0,0,-3.2136,-3.2139,-3.2265,-3.2266,-3.2266,-3.2316,-3.2317,-3.2317,-3.2285,-3.2283,-3.2281,-3.228,-3.2328,-3.2331,-3.2334,0,0,0,0,0,0,0,0,0,0,0,0,0,-3.219,-3.214,-3.2265,-3.2256,-3.2256,-3.2316,-3.2317,-3.2318,-3.2285,-3.2283,-3.2281,-3.2279,-3.2327,-3.2331,-3.2335,-3.2405,0,0,-3.2347,-3.2349,0,0,0,0,0,0,0,0,-3.2187,-3.2195,-3.2257,-3.2257,-3.2257,-3.2292,-3.2289,-3.2347,-3.2286,-3.2274,-3.228,-3.2278,-3.2318,-3.2323,-3.2337,-3.2407,-3.2409,-3.2348,-3.235,-3.2352,-3.2353,0,0,0,0,0,0,0,-3.2184,-3.2193,-3.2285,-3.2258,-3.2258,-3.2249,-3.2254,-3.23,-3.2308,-3.2275,-3.2273,-3.2279,-3.2318,-3.2333,-3.2338,-3.241,-3.2348,-3.2351,-3.2354,-3.2355,-3.2541,-3.2543,0,0,0,0,0,0,-3.2181,-3.219,-3.2283,-3.2287,-3.2216,-3.2253,-3.2259,-3.2283,-3.2307,-3.2309,-3.2281,-3.2278,-3.2328,-3.2333,-3.234,-3.2424,-3.2352,-3.2356,-3.2358,-3.2538,-3.2541,-3.2544,0,0,0,0,0,0,-3.2178,-3.219,-3.2281,-3.2238,-3.2249,-3.2258,-3.2285,-3.2285,-3.2301,-3.2312,-3.2313,-3.2296,-3.2326,-3.2334,-3.2389,-3.2425,-3.2357,-3.2361,-3.2535,-3.2539,-3.2542,-3.2592,0,0,0,0,0,0,-3.2175,-3.2189,-3.2216,-3.2239,-3.2251,-3.2331,-3.2287,-3.2288,-3.2308,-3.2304,-3.2326,-3.2328,-3.2325,-3.2384,-3.2393,-3.2429,-3.2364,-3.2532,-3.2537,-3.2541,-3.2588,-3.2597,-3.2606,0,0,0,0,0,-3.217,-3.2228,-3.2218,-3.223,-3.2286,-3.2334,-3.2341,-3.2337,-3.2311,-3.2338,-3.2346,-3.2327,-3.242,-3.2389,-3.24,-3.2438,-3.253,-3.2536,-3.2541,-3.2583,-3.2595,-3.2605,0,0,0,0,0,0,-3.2208,-3.223,-3.222,-3.2286,-3.2309,-3.2328,-3.2362,-3.235,-3.2378,-3.2373,-3.2366,-3.2372,-3.243,-3.2439,-3.2405,-3.2507,-3.247,-3.2478,-3.2499,-3.251,-3.2519,-3.2516,-3.2368,0,0,0,0,0,-3.2224,-3.2262,-3.2279,-3.2336,-3.2348,-3.2353,-3.2374,-3.2369,-3.2391,-3.24,-3.2412,-3.2433,-3.2467,-3.2489,-3.2521,-3.2589,-3.2593,-3.262,-3.2629,-3.2636,-3.2643,-3.268,-3.2692,-3.2562,-3.2562,-3.2562,0,0,-3.2258,-3.2275,-3.2299,-3.2344,-3.2361,-3.2399,-3.2361,-3.2403,-3.2432,-3.2406,-3.246,-3.2469,-3.2492,-3.2554,-3.2582,-3.2564,-3.268,-3.2644,-3.2649,-3.2652,-3.2687,-3.2699,-3.271,-3.2566,-3.2565,-3.2565,0,0,-3.2339,-3.2356,-3.2405,-3.2423,-3.2449,-3.2452,-3.2464,-3.2486,-3.2492,-3.2545,-3.2527,-3.256,-3.2618,-3.2636,-3.2652,-3.274,-3.2724,-3.2751,-3.2798,-3.2834,-3.2844,-3.2853,-3.2885,-3.2896,-3.2758,-3.2758,-3.2758,0,-3.2377,-3.2435,-3.2432,-3.2476,-3.2496,-3.2476,-3.2526,-3.2543,-3.2577,-3.2591,-3.2571,-3.2644,-3.2658,-3.2724,-3.2746,-3.276,-3.2773,-3.2748,-3.2843,-3.2852,-3.2861,-3.2891,-3.2903,-3.2761,-3.2761,-3.276,-3.276,0,-3.2481,-3.2522,-3.2558,-3.2594,-3.2618,-3.2665,-3.2667,-3.2692,-3.2686,-3.2691,-3.2746,-3.2762,-3.2797,-3.2812,-3.2805,-3.2878,-3.2865,-3.2844,-3.2807,-3.2876,-3.2904,-3.2916,-3.2765,-3.2764,-3.2763,-3.2763,0,0,-3.2587,-3.2621,-3.2634,-3.265,-3.2678,-3.2709,-3.2754,-3.279,-3.2811,-3.2835,-3.2873,-3.2923,-3.2904,-3.2923,-3.2918,-3.2949,-3.3018,-3.2924,-3.2925,-3.2941,-3.3099,-3.3115,-3.3128,-3.3008,-3.301,-3.3012,-3.3097,0,-3.267,-3.275,-3.2749,-3.2823,-3.2861,-3.2842,-3.2882,-3.2903,-3.2909,-3.2941,-3.2947,-3.2983,-3.2955,-3.2966,-3.2996,-3.3004,-3.305,-3.2997,-3.3042,-3.3044,-3.3037,-3.3143,-3.316,-3.3239,-3.3108,-3.311,-3.3111,0,-3.2777,-3.2807,-3.2886,-3.2908,-3.2924,-3.296,-3.2992,-3.3023,-3.3046,-3.3048,-3.307,-3.306,-3.3105,-3.3067,-3.3129,-3.3093,-3.3111,-3.3117,-3.312,-3.3124,-3.3082,-3.315,-3.3264,-3.3277,-3.3128,-3.3127,-3.3126,0,-3.2847,-3.2906,-3.2961,-3.2976,-3.3003,-3.3029,-3.3041,-3.3062,-3.3084,-3.3112,-3.3125,-3.3158,-3.3175,-3.32,-3.3199,-3.3171,-3.3262,-3.3223,-3.3264,-3.3264,-3.3284,-3.3283,-3.3403,-3.3296,-3.3295,-3.3295,-3.3295,0,-3.2939,-3.2988,-3.2993,-3.3027,-3.3081,-3.3078,-3.3131,-3.3141,-3.316,-3.3195,-3.318,-3.3213,-3.3209,-3.3242,-3.3241,-3.3292,-3.33,-3.3303,-3.3302,-3.3304,-3.3304,-3.3316,-3.3311,-3.3298,-3.3298,-3.3297,-3.3296,0,-3.3026,-3.3031,-3.309,-3.3112,-3.3119,-3.3158,-3.3176,-3.3208,-3.3213,-3.3257,-3.3267,-3.3275,-3.3312,-3.3314,-3.3357,-3.3356,-3.3419,-3.3412,-3.3412,-3.341,-3.3451,-3.3448,-3.3584,-3.3602,-3.3482,-3.3483,-3.3484,0,-3.3085,-3.3123,-3.3149,-3.3172,-3.3187,-3.3223,-3.3246,-3.3244,-3.3268,-3.3297,-3.3325,-3.3362,-3.3391,-3.3452,-3.346,-3.3493,-3.3487,-3.3532,-3.3491,-3.3493,-3.3488,-3.3486,-3.3489,-3.354,-3.3542,-3.3543,-3.3543,0,-3.3189,-3.319,-3.3224,-3.3259,-3.3286,-3.3313,-3.3338,-3.3357,-3.3358,-3.3385,-3.3424,-3.3447,-3.3492,-3.3528,-3.356,-3.3571,-3.3558,-3.3556,-3.3568,-3.357,-3.3569,-3.3571,-3.3434,-3.3553,-3.3552,-3.3552,-3.3551,-3.3551,-3.3264,-3.3297,-3.3321,-3.3359,-3.3378,-3.3401,-3.3433,-3.3442,-3.3475,-3.3512,-3.3509,-3.3552,-3.3574,-3.3616,-3.363,-3.3663,-3.3647,-3.3664,-3.3668,-3.3672,-3.3676,-3.3564,-3.3669,-3.3669,-3.3668,-3.3668,-3.3668,0,-3.3368,-3.3383,-3.3418,-3.3454,-3.3483,-3.3469,-3.3496,-3.3521,-3.356,-3.3582,-3.3612,-3.3657,-3.3692,-3.3704,-3.3738,-3.3762,-3.3757,-3.3771,-3.377,-3.3773,-3.3688,-3.3676,-3.3775,-3.3775,-3.3775,-3.3775,-3.3775,-3.3775,-3.3425,-3.348,-3.3484,-3.3548,-3.3562,-3.3606,-3.3622,-3.3644,-3.3661,-3.3713,-3.3743,-3.3751,-3.3768,-3.3804,-3.3835,-3.3838,-3.3851,-3.3868,-3.3868,-3.3789,-3.3778,-3.3768,-3.3756,-3.3871,-3.3871,-3.3949,-3.395,-3.3951]}]]